• In Sweden
  • List of Countries
  • For 7 days
  • Water Temperature
  • Satellite Maps
  • Weather Map
  • Weather Widgets
  • user-avatar
    Login

    Hourly Weather Anekal

    Today, 22 October, Monday

    Time Temperature Precipitation Wind Pressure Humidity
    00:00 +20°C° 0 mm 2 mps 683 mmHg 81%
    01:00 +20°C° 0 mm 2 mps 683 mmHg 81%
    02:00 +21°C° 0 mm 1 mps 682 mmHg 82%
    03:00 +20°C° 0 mm 1 mps 682 mmHg 81%
    04:00 +20°C° 0 mm 1 mps 682 mmHg 80%
    05:00 +19°C° 0 mm 1 mps 682 mmHg 81%
    06:00 +20°C° 0 mm 2 mps 683 mmHg 75%
    07:00 +21°C° 0 mm 2 mps 684 mmHg 69%
    08:00 +24°C° 0 mm 2 mps 684 mmHg 63%
    09:00 +25°C° 0 mm 3 mps 684 mmHg 58%
    10:00 +27°C° 0 mm 4 mps 684 mmHg 52%
    11:00 +28°C° 0 mm 4 mps 685 mmHg 47%
    12:00 +28°C° 0 mm 4 mps 684 mmHg 46%
    13:00 +29°C° 0 mm 4 mps 683 mmHg 46%
    14:00 +29°C° 0 mm 4 mps 683 mmHg 46%
    15:00 +28°C° 0 mm 3 mps 683 mmHg 51%
    16:00 +27°C° 0 mm 3 mps 682 mmHg 57%
    17:00 +26°C° 0 mm 2 mps 682 mmHg 63%
    18:00 +24°C° 0 mm 2 mps 682 mmHg 65%
    19:00 +23°C° 0 mm 2 mps 682 mmHg 67%
    20:00 +21°C° 0 mm 2 mps 683 mmHg 69%
    21:00 +21°C° 0 mm 2 mps 683 mmHg 71%
    22:00 +20°C° 0 mm 2 mps 683 mmHg 73%
    23:00 +20°C° 0 mm 2 mps 683 mmHg 74%

    Tomorrow, 23 October, Tuesday

    Time Temperature Precipitation Wind Pressure Humidity
    00:00 +20°C° 0 mm 1 mps 682 mmHg 76%
    01:00 +20°C° 0 mm 1 mps 682 mmHg 77%
    02:00 +20°C° 0 mm 1 mps 682 mmHg 78%
    03:00 +19°C° 0 mm 1 mps 682 mmHg 79%
    04:00 +19°C° 0 mm 1 mps 682 mmHg 79%
    05:00 +19°C° 0 mm 1 mps 682 mmHg 79%
    06:00 +21°C° 0 mm 1 mps 683 mmHg 73%
    07:00 +22°C° 0 mm 1 mps 684 mmHg 67%
    08:00 +24°C° 0 mm 1 mps 684 mmHg 60%
    09:00 +26°C° 0 mm 2 mps 684 mmHg 55%
    10:00 +27°C° 0 mm 2 mps 684 mmHg 49%
    11:00 +29°C° 0 mm 3 mps 685 mmHg 44%
    12:00 +29°C° 0 mm 3 mps 684 mmHg 44%
    13:00 +29°C° 0 mm 3 mps 683 mmHg 43%
    14:00 +30°C° 0 mm 3 mps 683 mmHg 43%
    15:00 +29°C° 0 mm 3 mps 683 mmHg 50%
    16:00 +27°C° 0 mm 3 mps 682 mmHg 56%
    17:00 +26°C° 0 mm 2 mps 682 mmHg 62%
    18:00 +25°C° 0 mm 2 mps 683 mmHg 66%
    19:00 +24°C° 0 mm 2 mps 683 mmHg 70%
    20:00 +23°C° 0 mm 2 mps 683 mmHg 74%
    21:00 +21°C° 0 mm 2 mps 683 mmHg 77%
    22:00 +21°C° 0 mm 2 mps 683 mmHg 79%
    23:00 +21°C° 0 mm 1 mps 683 mmHg 82%

    Day after tomorrow, 24 October, Wednesday

    Time Temperature Precipitation Wind Pressure Humidity
    00:00 +21°C° 0 mm 1 mps 683 mmHg 83%
    01:00 +21°C° 0 mm 1 mps 682 mmHg 85%
    02:00 +20°C° 0 mm 1 mps 682 mmHg 86%
    03:00 +20°C° 0 mm 1 mps 682 mmHg 87%
    04:00 +20°C° 0 mm 1 mps 682 mmHg 87%
    05:00 +20°C° 0 mm 1 mps 682 mmHg 88%
    06:00 +22°C° 0 mm 1 mps 683 mmHg 82%
    07:00 +23°C° 0 mm 2 mps 683 mmHg 75%
    08:00 +25°C° 0 mm 2 mps 684 mmHg 69%
    09:00 +26°C° 0 mm 3 mps 684 mmHg 64%
    10:00 +28°C° 0 mm 3 mps 684 mmHg 58%
    11:00 +29°C° 0 mm 4 mps 684 mmHg 53%
    12:00 +29°C° 0 mm 4 mps 684 mmHg 52%
    13:00 +29°C° 0 mm 4 mps 683 mmHg 52%
    14:00 +30°C° 0 mm 4 mps 682 mmHg 51%
    15:00 +29°C° 0 mm 4 mps 682 mmHg 57%
    16:00 +27°C° 0 mm 3 mps 682 mmHg 63%
    17:00 +26°C° 0 mm 3 mps 682 mmHg 68%
    18:00 +25°C° 0.1 mm 3 mps 682 mmHg 72%
    19:00 +24°C° 0.1 mm 3 mps 683 mmHg 76%
    20:00 +22°C° 0.1 mm 3 mps 683 mmHg 79%
    21:00 +21°C° 0 mm 2 mps 683 mmHg 82%
    22:00 +21°C° 0 mm 2 mps 683 mmHg 84%
    23:00 +20°C° 0 mm 2 mps 683 mmHg 86%

    25 October, Thursday

    Time Temperature Precipitation Wind Pressure Humidity
    00:00 +20°C° 0 mm 2 mps 683 mmHg 87%
    01:00 +20°C° 0 mm 2 mps 682 mmHg 88%
    02:00 +20°C° 0 mm 1 mps 682 mmHg 89%
    03:00 +20°C° 0 mm 1 mps 682 mmHg 89%
    04:00 +20°C° 0 mm 1 mps 682 mmHg 88%
    05:00 +19°C° 0 mm 1 mps 682 mmHg 87%
    06:00 +20°C° 0 mm 2 mps 683 mmHg 80%
    07:00 +21°C° 0 mm 2 mps 684 mmHg 72%
    08:00 +24°C° 0 mm 3 mps 685 mmHg 65%
    09:00 +25°C° 0 mm 3 mps 685 mmHg 59%
    10:00 +27°C° 0 mm 4 mps 685 mmHg 53%
    11:00 +28°C° 0 mm 4 mps 685 mmHg 47%
    12:00 +28°C° 0 mm 4 mps 684 mmHg 48%
    13:00 +29°C° 0 mm 5 mps 683 mmHg 49%
    14:00 +29°C° 0 mm 5 mps 683 mmHg 49%
    15:00 +28°C° 0 mm 4 mps 683 mmHg 56%
    16:00 +27°C° 0 mm 4 mps 683 mmHg 62%
    17:00 +25°C° 0 mm 3 mps 683 mmHg 68%
    18:00 +24°C° 0 mm 3 mps 683 mmHg 70%
    19:00 +22°C° 0 mm 3 mps 684 mmHg 73%
    20:00 +21°C° 0 mm 3 mps 684 mmHg 75%
    21:00 +21°C° 0 mm 3 mps 684 mmHg 79%
    22:00 +20°C° 0 mm 3 mps 684 mmHg 83%
    23:00 +19°C° 0 mm 2 mps 684 mmHg 88%

    26 October, Friday

    Time Temperature Precipitation Wind Pressure Humidity
    00:00 +19°C° 0 mm 2 mps 683 mmHg 89%
    01:00 +18°C° 0 mm 2 mps 683 mmHg 91%
    02:00 +18°C° 0 mm 2 mps 682 mmHg 92%
    03:00 +18°C° 0 mm 2 mps 683 mmHg 93%
    04:00 +18°C° 0 mm 2 mps 683 mmHg 93%
    05:00 +17°C° 0 mm 2 mps 683 mmHg 93%
    06:00 +19°C° 0 mm 3 mps 684 mmHg 88%
    07:00 +21°C° 0 mm 4 mps 685 mmHg 82%
    08:00 +22°C° 0 mm 4 mps 685 mmHg 77%
    09:00 +23°C° 0 mm 5 mps 685 mmHg 71%
    10:00 +26°C° 0 mm 5 mps 685 mmHg 65%
    11:00 +27°C° 0 mm 5 mps 685 mmHg 59%
    12:00 +28°C° 0 mm 5 mps 685 mmHg 58%
    13:00 +28°C° 0 mm 5 mps 684 mmHg 58%
    14:00 +28°C° 0 mm 5 mps 683 mmHg 57%
    15:00 +27°C° 0.1 mm 5 mps 683 mmHg 62%
    16:00 +26°C° 0.1 mm 4 mps 683 mmHg 68%
    17:00 +25°C° 0.1 mm 4 mps 683 mmHg 73%
    18:00 +23°C° 0 mm 4 mps 683 mmHg 77%
    19:00 +22°C° 0 mm 4 mps 684 mmHg 81%
    20:00 +21°C° 0 mm 3 mps 684 mmHg 84%
    21:00 +20°C° 0 mm 3 mps 684 mmHg 87%
    22:00 +20°C° 0 mm 3 mps 684 mmHg 90%
    23:00 +19°C° 0 mm 3 mps 684 mmHg 93%

    27 October, Saturday

    Time Temperature Precipitation Wind Pressure Humidity
    00:00 +19°C° 0 mm 3 mps 683 mmHg 94%
    01:00 +18°C° 0 mm 2 mps 683 mmHg 95%
    02:00 +18°C° 0 mm 2 mps 683 mmHg 96%
    03:00 +18°C° 0 mm 2 mps 683 mmHg 95%
    04:00 +18°C° 0 mm 2 mps 683 mmHg 95%
    05:00 +18°C° 0 mm 2 mps 683 mmHg 95%
    06:00 +19°C° 0 mm 3 mps 684 mmHg 88%
    07:00 +21°C° 0 mm 3 mps 685 mmHg 82%
    08:00 +22°C° 0 mm 4 mps 686 mmHg 76%
    09:00 +23°C° 0 mm 4 mps 686 mmHg 69%
    10:00 +26°C° 0 mm 5 mps 685 mmHg 63%
    11:00 +27°C° 0 mm 5 mps 685 mmHg 56%
    12:00 +28°C° 0 mm 5 mps 684 mmHg 56%
    13:00 +28°C° 0 mm 5 mps 684 mmHg 55%
    14:00 +28°C° 0 mm 5 mps 683 mmHg 55%
    15:00 +27°C° 0.1 mm 5 mps 683 mmHg 60%
    16:00 +26°C° 0.1 mm 4 mps 683 mmHg 66%
    17:00 +25°C° 0.1 mm 4 mps 683 mmHg 71%
    18:00 +23°C° 0 mm 4 mps 683 mmHg 74%
    19:00 +22°C° 0 mm 4 mps 684 mmHg 76%
    20:00 +21°C° 0 mm 3 mps 684 mmHg 79%
    21:00 +20°C° 0 mm 3 mps 684 mmHg 81%
    22:00 +20°C° 0 mm 3 mps 684 mmHg 83%
    23:00 +19°C° 0 mm 2 mps 684 mmHg 85%

    28 October, Sunday

    Time Temperature Precipitation Wind Pressure Humidity
    00:00 +19°C° 0 mm 2 mps 683 mmHg 87%
    01:00 +18°C° 0 mm 2 mps 683 mmHg 88%
    02:00 +18°C° 0 mm 2 mps 682 mmHg 89%
    03:00 +18°C° 0 mm 2 mps 682 mmHg 90%
    04:00 +18°C° 0 mm 2 mps 683 mmHg 91%
    05:00 +18°C° 0 mm 2 mps 683 mmHg 91%
    06:00 +19°C° 0 mm 3 mps 683 mmHg 86%
    07:00 +20°C° 0 mm 3 mps 684 mmHg 81%
    08:00 +22°C° 0 mm 4 mps 685 mmHg 76%
    09:00 +23°C° 0 mm 4 mps 685 mmHg 69%
    10:00 +26°C° 0 mm 5 mps 685 mmHg 63%
    11:00 +27°C° 0 mm 5 mps 685 mmHg 56%
    12:00 +27°C° 0.2 mm 5 mps 684 mmHg 57%
    13:00 +27°C° 0.2 mm 5 mps 683 mmHg 58%
    14:00 +28°C° 0.2 mm 5 mps 682 mmHg 59%
    15:00 +26°C° 1 mm 5 mps 682 mmHg 65%
    16:00 +25°C° 1 mm 4 mps 682 mmHg 71%
    17:00 +23°C° 1 mm 4 mps 682 mmHg 77%
    18:00 +22°C° 0.1 mm 4 mps 683 mmHg 79%
    19:00 +21°C° 0.1 mm 3 mps 683 mmHg 81%
    20:00 +20°C° 0.1 mm 3 mps 684 mmHg 82%
    21:00 +20°C° 0 mm 3 mps 683 mmHg 83%
    22:00 +19°C° 0 mm 3 mps 683 mmHg 85%
    23:00 +19°C° 0 mm 2 mps 683 mmHg 86%
    Show more